Location: Sedan
(39.2354°N, 78.5718°W)
Time: 18:03:46
(UTC+00:00)

WORLDVIEW 2 - Visible Passes

Search period start: 11 August 2022 00:00
Search period end: 21 August 2022 00:00
Orbit: 765 x 767 km, 98.5° (Epoch: 11 August)

Date Brightness Start Highest point End Pass type
(mag) Time Alt. Az. Time Alt. Az. Time Alt. Az.
11 Aug 5.2 03:01:21 60° NE 03:01:21 60° NE 03:06:02 10° N visible
11 Aug 7.4 04:41:34 13° WNW 04:41:34 13° WNW 04:43:07 10° WNW visible
12 Aug 6.1 02:24:31 28° ENE 02:24:45 28° ENE 02:29:03 10° N visible
12 Aug 6.5 04:04:44 29° WNW 04:04:44 29° WNW 04:08:11 10° NNW visible
13 Aug 6.9 01:47:42 13° ENE 01:48:42 13° ENE 01:51:04 10° NNE visible
13 Aug 5.4 03:27:56 59° NW 03:27:56 59° NW 03:32:09 10° NNW visible
14 Aug 5.5 02:51:06 47° NE 02:51:06 47° NE 02:55:33 10° N visible
14 Aug 7.3 04:31:20 17° WNW 04:31:20 17° WNW 04:33:23 10° NW visible
15 Aug 6.4 02:14:17 23° ENE 02:14:28 23° ENE 02:18:23 10° NNE visible
15 Aug 6.3 03:54:30 34° WNW 03:54:30 34° WNW 03:58:00 10° NNW visible
16 Aug 7.1 01:37:35 10° ENE 01:38:29 10° ENE 01:39:24 10° NE visible
16 Aug 5.4 03:17:42 58° N 03:17:42 58° N 03:21:47 10° NNW visible
17 Aug 5.8 02:40:53 38° NE 02:40:53 38° NE 02:45:03 10° N visible
17 Aug 7.1 04:21:06 20° WNW 04:21:06 20° WNW 04:23:27 10° NW visible
18 Aug 6.6 02:04:04 18° ENE 02:04:13 18° ENE 02:07:38 10° NNE visible
18 Aug 6.2 03:44:17 39° NW 03:44:17 39° NW 03:47:45 10° NNW visible
19 Aug 5.6 03:07:29 51° NNE 03:07:29 51° NNE 03:11:23 10° N visible
19 Aug 7.7 04:47:42 11° WNW 04:47:42 11° WNW 04:47:57 10° WNW visible
20 Aug 6.1 02:30:39 30° NE 02:30:39 30° NE 02:34:29 10° N visible
20 Aug 7.0 04:10:53 23° WNW 04:10:53 23° WNW 04:13:23 10° NW visible
